Regional Weather Roundup
Issued by NWS

Home | Current Version | Previous Version | Graphics & Text | Print | Product List | Glossary Off
Versions: 1 2 3 4 5 6 7 8 9 10 11 12 13 14 15 16 17 18 19 20 21 22 23 24 25 26 27 28 29 30 31 32 33 34 35 36 37 38 39 40 41 42 43 44 45 46 47 48 49 50

000
ASUS44 KMEG 181510
RWRTN
TENNESSEE HOURLY STATE WEATHER ROUNDUP
NATIONAL WEATHER SERVICE MEMPHIS TN
900 AM CST THU DEC 18 2014

TNZ002-004-019-021-049-052-054-088>092-181600-
WEST TENNESSEE

CITY           SKY/WX    TMP DP  RH WIND       PRES   REMARKS
MEMPHIS INTL   CLOUDY    40  35  83 E3        30.25R
NWS MEMPHIS      N/A     38 N/A N/A MISG        N/A
JACKSON        CLOUDY    38  34  85 E3        30.25S FOG
DYERSBURG      CLOUDY    36  25  64 NE3       30.28R
UNION CITY     CLOUDY    34  32  93 NE5       30.27R WCI  30
PARIS          CLOUDY    32  30  93 NE6       30.25F WCI  26
HUNTINGDON     CLOUDY    33  32  96 NE6       30.25S WCI  27
LEXINGTON      CLOUDY    34  34 100 NE3       30.23S
SAVANNAH       CLOUDY    37  36  93 CALM      30.25R
$$

TNZ008-025-027-028-033-062-065-066-181600-
NORTH MIDDLE TENNESSEE

CITY           SKY/WX    TMP DP  RH WIND       PRES   REMARKS
NASHVILLE      CLOUDY    34  32  92 CALM      30.26R FOG
CLARKSVILLE    CLOUDY    33  30  88 N6        30.27R FOG     WCI  28
SMYRNA         CLOUDY    35  33  92 NW5       30.27R WCI  31
COOKEVILLE     MOSUNNY   34  34 100 CALM      30.20R
CROSSVILLE     PTSUNNY   35  30  82 CALM      30.18R
$$

TNZ061-075-076-078-094-096-097-181600-
SOUTH MIDDLE TENNESSEE

CITY           SKY/WX    TMP DP  RH WIND       PRES   REMARKS
FAYETTEVILLE   PTSUNNY   34  30  86 N3        30.21R
TULLAHOMA      CLOUDY    34  30  86 CALM      30.21S
WINCHESTER     CLOUDY    36  32  87 CALM      30.22R
MCMINNVILLE    PTSUNNY   36  36 100 CALM      30.20R
SHELBYVILLE    CLOUDY    36  34  93 CALM      30.23R
$$

TNZ017-018-042-046-047-181600-
NORTHEAST TENNESSEE

CITY           SKY/WX    TMP DP  RH WIND       PRES   REMARKS
TRI CITIES     CLOUDY    32  30  92 CALM      30.22R
ELIZABETHTON   CLOUDY    30  28  93 CALM      30.21S
$$

TNZ012-013-036-069-073-074-181600-
CENTRAL EAST TENNESSEE

CITY           SKY/WX    TMP DP  RH WIND       PRES   REMARKS
KNOXVILLE      PTSUNNY   36  31  82 NE7       30.20F WCI  30
GATLINBURG     PTSUNNY   34  30  86 NE3       30.21S
MORRISTOWN     CLOUDY    36  30  80 SE5       30.22R WCI  32
$$

TNZ083-085-099-181600-
SOUTHEAST TENNESSEE

CITY           SKY/WX    TMP DP  RH WIND       PRES   REMARKS
CHATTANOOGA    PTSUNNY   39  32  76 N6        30.23R WCI  35
$$

SKY/WX REPORTED AS FAIR MEANS FEW OR NO CLOUDS BELOW
12 THOUSAND FEET.



USA.gov is the U.S. government's official web portal to all federal, state and local government web resources and services.